This is the latest recevied weather packets stored in our database for station/object AI5BL. If no packets are shown the sender has not sent any weather packets the latest 10 day(s).
| Time | Temp. | Humidity | Pressure | Rain* | Wind** | Luminosity | Snow |
|---|---|---|---|---|---|---|---|
| 1788565905 | 25.56° C | 99% | 1016.5 hPa | 0 mm | - | 9 W/m² | - |
| 1788565600 | 25.56° C | 99% | 1016.7 hPa | 0 mm | - | 11 W/m² | - |
| 1788565296 | 25.56° C | 99% | 1016.6 hPa | 0 mm | - | 10 W/m² | - |
| 1788564991 | 25.56° C | 99% | 1016.7 hPa | 0 mm | - | 10 W/m² | - |
| 1788564687 | 25.56° C | 99% | 1016.7 hPa | 0 mm | - | 12 W/m² | - |
| 1788564384 | 25.56° C | 99% | 1016.7 hPa | 0 mm | - | 17 W/m² | - |
| 1788564080 | 25.56° C | 99% | 1017 hPa | 0 mm | - | 20 W/m² | - |
| 1788563775 | 25.56° C | 99% | 1016.9 hPa | 0 mm | - | 23 W/m² | - |
| 1788563475 | 25.56° C | 99% | 1016.7 hPa | 0 mm | - | 33 W/m² | - |
| 1788563174 | 25° C | 99% | 1016.5 hPa | 0 mm | - | 37 W/m² | - |
| 1788562870 | 25° C | 99% | 1016.7 hPa | 0 mm | - | 44 W/m² | - |
| 1788562567 | 25° C | 99% | 1016.5 hPa | 0 mm | - | 47 W/m² | - |
| 1788562262 | 25° C | 99% | 1016.5 hPa | 0 mm | - | 43 W/m² | - |
| 1788561957 | 25° C | 99% | 1016.5 hPa | 0 mm | - | 43 W/m² | - |
| 1788561647 | 25° C | 99% | 1016.3 hPa | 0 mm | - | 43 W/m² | - |
| 1788561346 | 25° C | 99% | 1016.3 hPa | 0 mm | - | 41 W/m² | - |
| 1788561042 | 25° C | 99% | 1016.2 hPa | 0 mm | - | 40 W/m² | - |
| 1788560737 | 25° C | 99% | 1015.9 hPa | 0 mm | - | 43 W/m² | - |
| 1788560432 | 25° C | 99% | 1016.1 hPa | 0 mm | - | 45 W/m² | - |
| 1788560127 | 25° C | 99% | 1015.9 hPa | 0 mm | - | 47 W/m² | - |
| 1788559827 | 25° C | 99% | 1016 hPa | 0 mm | - | 48 W/m² | - |
| 1788559526 | 25° C | 99% | 1015.8 hPa | 1.78 mm | - | 45 W/m² | - |
| 1788559222 | 25° C | 99% | 1016 hPa | 1.78 mm | - | 42 W/m² | - |
| 1788558922 | 25° C | 99% | 1015.8 hPa | 1.27 mm | - | 37 W/m² | - |
| 1788558618 | 25° C | 99% | 1015.9 hPa | 4.32 mm | - | 32 W/m² | - |
* Rain latest hour (hover to see other rain measurements)
** Current wind speed in m/s (hover to see current wind gust speed)